Weather History for Dayton, OH

Change the Weather History Date:

Monday, August 5, 2013

  Actual Average Record
Temperature  
Mean Temperature 69 °F 74 °F  
Max Temperature 77 °F 83 °F 103 °F (1918)
Min Temperature 60 °F 64 °F 45 °F (1972)
Degree Days  
Heating Degree Days 0 0  
Month to date heating degree days 0 0  
Since 1 June heating degree days 14 22  
Since 1 July heating degree days 3 0  
Cooling Degree Days 4 9  
Month to date cooling degree days 28 45  
Year to date cooling degree days 656 584  
Since 1 June cooling degree days 525 514  
Growing Degree Days 18 (Base 50)    
Moisture  
Dew Point 57 °F    
Average Humidity 69    
Maximum Humidity 90    
Minimum Humidity 47    
Precipitation  
Precipitation 0.05 in 0.09 in 3.38 in (1995)
Month to date precipitation 0.40 0.49  
Year to date precipitation 21.40 25.81  
Snow  
Snow 0.00 in 0.00 in 0.00 in ()
Month to date snowfall 0.0 0.0  
Since 1 June snowfall 0.0 0.0  
Since 1 July snowfall 0.0 0.0  
Snow Depth 0.00 in    
Sea Level Pressure  
Sea Level Pressure 30.08 in    
Wind  
Wind Speed 4 mph (SSE)    
Max Wind Speed 10 mph    
Max Gust Speed 13 mph    
Visibility 10 miles    
Events Rain    
T = Trace of Precipitation, MM = Missing Value Source: NWS Daily Summary

Daily Weather History Graph

Daily Weather History Graph

Search for Another Location

Airport:

Trip Planner

Search our weather history database for the weather conditions in past years. The results will help you decide how hot, cold, wet, or windy it might be!

Date:

Astronomy

Aug. 05, 2013 Rise Set
Actual Time 6:39 AM EDT 8:45 PM EDT
Civil Twilight 6:09 AM EDT 9:15 PM EDT
Nautical Twilight 5:32 AM EDT 9:51 PM EDT
Astronomical Twilight 4:53 AM EDT 10:31 PM EDT
Moon 5:33 AM EDT (8/5) 7:45 PM EDT (8/5)
Length of Visible Light 15h 05m
Length of Day
14h 06m
Waning Crescent, 1% of the Moon is Illuminated
Aug 5
Waning Crescent
Aug 6
New
Aug 14
First Quarter
Aug 20
Full
Aug 28
Last Quarter

Hourly Weather History & Observations

Time (EDT) Temp. Dew Point Humidity Pressure Visibility Wind Dir Wind Speed Gust Speed Precip Events Conditions
12:56 AM 63.0 °F 55.9 °F 78% 30.13 in 10.0 mi East 3.5 mph - N/A   Scattered Clouds
1:56 AM 64.0 °F 55.0 °F 73% 30.13 in 10.0 mi Calm Calm - N/A   Scattered Clouds
2:56 AM 62.1 °F 55.9 °F 80% 30.12 in 10.0 mi Calm Calm - N/A   Partly Cloudy
3:56 AM 61.0 °F 57.0 °F 87% 30.13 in 10.0 mi Calm Calm - N/A   Overcast
4:56 AM 61.0 °F 57.0 °F 87% 30.12 in 10.0 mi Calm Calm - N/A   Mostly Cloudy
5:56 AM 60.1 °F 55.0 °F 83% 30.12 in 10.0 mi SE 3.5 mph - N/A   Scattered Clouds
6:56 AM 60.1 °F 55.9 °F 86% 30.12 in 10.0 mi SSE 4.6 mph - N/A   Mostly Cloudy
7:56 AM 62.1 °F 57.0 °F 84% 30.13 in 10.0 mi Calm Calm - N/A   Mostly Cloudy
8:56 AM 66.9 °F 55.9 °F 68% 30.14 in 10.0 mi South 5.8 mph - N/A   Partly Cloudy
9:56 AM 68.0 °F 57.0 °F 68% 30.13 in 10.0 mi SE 4.6 mph - N/A   Partly Cloudy
10:56 AM 70.0 °F 57.0 °F 63% 30.12 in 10.0 mi Variable 3.5 mph - N/A   Partly Cloudy
11:56 AM 73.9 °F 57.0 °F 55% 30.10 in 10.0 mi SW 3.5 mph - N/A   Scattered Clouds
12:56 PM 75.0 °F 55.0 °F 50% 30.10 in 10.0 mi Variable 5.8 mph - N/A   Mostly Cloudy
1:56 PM 73.9 °F 55.0 °F 52% 30.08 in 10.0 mi SW 3.5 mph - N/A   Overcast
2:56 PM 75.9 °F 55.9 °F 50% 30.07 in 10.0 mi WSW 5.8 mph - N/A   Mostly Cloudy
3:56 PM 77.0 °F 55.9 °F 48% 30.06 in 10.0 mi WSW 4.6 mph - N/A   Mostly Cloudy
4:56 PM 75.9 °F 55.0 °F 48% 30.04 in 10.0 mi South 3.5 mph - N/A   Overcast
5:56 PM 75.9 °F 57.0 °F 52% 30.03 in 10.0 mi SW 5.8 mph - 0.00 in   Overcast
6:56 PM 73.9 °F 57.0 °F 55% 30.00 in 10.0 mi SSE 8.1 mph - N/A   Overcast
7:56 PM 73.0 °F 57.9 °F 59% 30.02 in 10.0 mi SE 5.8 mph - 0.00 in   Overcast
8:56 PM 69.1 °F 61.0 °F 75% 30.02 in 6.0 mi SSE 4.6 mph - 0.04 in Rain Light Rain
9:56 PM 68.0 °F 62.1 °F 81% 30.00 in 10.0 mi SE 6.9 mph - 0.01 in   Overcast
10:56 PM 68.0 °F 61.0 °F 78% 29.99 in 10.0 mi SSE 10.4 mph - N/A   Overcast
11:56 PM 66.0 °F 61.0 °F 84% 29.99 in 10.0 mi East 5.8 mph - N/A   Overcast